Location: Unspecified
(49.2170°N, 0.0000°E)
Time: 14:39:49
(UTC+00:00)

Vanguard 1 - Pass Details

Date: 20 June 2021
Orbit: 651 x 3832 km, 34.2° (Epoch: 23 July)

Event Time Altitude Azimuth Distance (km) Brightness Sun altitude
Rises 00:09:19 0° 260° (W) 7,835 14.5 -17.3°
Reaches altitude 10° 00:15:24 10° 256° (WSW) 6,561 14.1 -17.3°
Maximum altitude 00:33:05 43° 194° (SSW) 3,242 12.2 -17.0°
Drops below altitude 10° 00:43:42 10° 127° (SE) 4,032 12.9 -16.7°
Sets 00:46:27 0° 120° (ESE) 4,682 13.3 -16.7°
